パンスターズ彗星

C/2018 A4 ( PanSTARRS )

English version
Home page
Updated on May 20, 2019

---------------------------------------------------------------------

・ プロフィール

発見日 2018年1月12日
発見光度 20.6等
発見者 Pan-STARRS 1 telescope (Haleakala)

・ 写真集

・ 軌道要素

Epoch 2018 May 2.0 TT = JDT 2458240.5
T 2018 May 18.80287 TT                                  MPCW
q   2.4025888            (2000.0)            P               Q
n   0.02291808     Peri.  356.13438     -0.06582040     -0.99634586
a  12.2748806      Node    97.63379     +0.91695887     -0.08190784
e   0.8042678      Incl.    3.14807     +0.39351506     +0.02420808
P  43.01
From 67 observations 2017 Oct. 23-2018 Mar. 28, mean residual 0".4.

・ 光度変化

        m1 = 13.0 + 5 logΔ + 10.0 log r

---------------------------------------------------------------------

軌道要素はM.P.E.C. 2019-J142に掲載されたものです。
光度グラフはComet for Windowsで作成したものです。

---------------------------------------------------------------------

Copyright(C) Seiichi Yoshida (comet@aerith.net). All rights reserved.